Terminal Aerodrome Forecast
Issued by NWS

Home | Current Version | Previous Version | Text Only | Print | Product List | Glossary On
Versions: 1 2 3 4 5 6 7 8 9 10 11 12 13
667
FTUS45 KRIW 110038 AAA
TAFCOD
TAF AMD
KCOD 110038Z 1101/1124 36008KT P6SM VCSH SCT008 OVC014
      TEMPO 1101/1103 3SM -SN OVC008
     FM110600 31007KT P6SM BKN050
     FM111700 25012KT P6SM BKN080
      AMD LTD TO CLD VIS AND WIND=

USA.gov is the U.S. government's official web portal to all federal, state and local government web resources and services.